SAUDISAT 1C (SO-50) 1 27607U 02058C 25312.80226468 .00002855 00000+0 36060-3 0 9993 2 27607 64.5533 90.4722 0070144 302.8760 56.5607 14.82191461231783 SAUDISAT 2 1 28371U 04025F 25312.45430432 .00000575 00000+0 13994-3 0 9995 2 28371 98.5400 301.9066 0023590 254.2416 105.6179 14.56476895133615 SAUDISAT 3 1 31118U 07012B 25312.84995390 .00000667 00000+0 11623-3 0 9998 2 31118 98.1173 258.5124 0014035 203.7413 156.3147 14.71206512995352 PISAT 1 41784U 16059B 25312.75092343 .00001809 00000+0 31924-3 0 9990 2 41784 97.8167 317.8208 0029058 186.9089 173.1720 14.68365897487386 FLYING LAPTOP 1 42831U 17042G 25312.84161975 .00004687 00000+0 38492-3 0 9999 2 42831 97.4185 113.0408 0012331 158.5443 201.6301 14.99583064453410 SALSAT 1 46495U 20068K 25312.75973230 .00014095 00000+0 55869-3 0 9997 2 46495 97.8772 298.2246 0010905 5.4820 354.6534 15.25466239281708